Precipitable_Water
0.56 0.56 0.56 0.56 0.56 0.56 0.57 0.58 0.58 0.58 0.59 0.59 0.57 0.55 0.54 0.54 0.55 0.56 0.56 0.55 0.53 0.51 0.48 0.47 0.51 0.53 0.54 0.55 0.55 0.54 0.53 0.41 0.34 0.31 0.30 0.31 0.35 0.42 0.50 0.53 0.56 0.76 0.93 0.93 0.95 0.91 0.92 0.99 1.06 1.39 1.47 1.48 1.42 1.40 1.50 1.51 1.57 1.49 1.20 1.12 1.03 1.17 1.22 1.37 1.30 1.37 1.49 1.35 1.41 1.46 1.43 1.19 1.02 1.19 1.20 1.27 1.14 1.12 1.10 1.09 1.20 1.25 1.24 1.19 1.19 1.24 1.24 1.29
0.55 0.55 0.55 0.56 0.56 0.56 0.56 0.56 0.57 0.57 0.58 0.58 0.59 0.57 0.56 0.54 0.53 0.53 0.54 0.55 0.55 0.53 0.51 0.50 0.47 0.49 0.52 0.53 0.54 0.54 0.47 0.38 0.29 0.31 0.28 0.33 0.37 0.41 0.47 0.55 0.61 0.76 0.91 0.83 0.80 0.81 0.85 0.90 1.09 1.33 1.38 1.30 1.49 1.33 1.53 1.35 1.58 1.26 1.18 1.15 1.02 1.22 1.39 1.52 1.49 1.52 1.43 1.39 1.46 1.51 1.45 1.20 1.08 1.15 1.18 0.99 0.96 1.00 0.94 1.03 1.09 1.06 1.13 1.20 1.21 1.21 1.19 1.23
0.55 0.55 0.55 0.55 0.56 0.56 0.56 0.56 0.56 0.56 0.56 0.57 0.57 0.58 0.58 0.56 0.54 0.52 0.52 0.52 0.54 0.55 0.54 0.52 0.50 0.48 0.48 0.51 0.50 0.51 0.42 0.29 0.30 0.23 0.23 0.37 0.36 0.40 0.45 0.58 0.58 0.79 0.77 0.70 0.76 0.80 0.87 0.99 1.16 1.29 1.33 1.30 1.41 1.30 1.45 1.38 1.48 1.40 1.22 1.05 1.15 1.41 1.46 1.56 1.56 1.58 1.62 1.56 1.46 1.46 1.36 1.23 1.19 1.19 1.26 0.96 0.92 0.96 0.84 0.85 0.96 0.95 0.94 1.03 1.11 1.18 1.15 1.17
0.56 0.56 0.56 0.56 0.55 0.55 0.56 0.56 0.56 0.56 0.56 0.55 0.56 0.56 0.57 0.57 0.56 0.54 0.52 0.51 0.51 0.54 0.55 0.55 0.53 0.50 0.49 0.46 0.48 0.45 0.33 0.24 0.18 0.33 0.42 0.48 0.42 0.40 0.41 0.53 0.63 0.81 0.77 0.75 0.75 0.75 0.93 1.01 1.19 1.30 1.33 1.31 1.35 1.45 1.28 1.43 1.28 1.39 1.27 1.11 1.24 1.48 1.41 1.50 1.65 1.65 1.63 1.64 1.52 1.49 1.41 1.22 1.26 1.24 1.16 1.00 0.88 0.89 0.90 0.98 0.92 0.91 0.94 1.01 1.09 1.15 1.14 1.11
0.58 0.58 0.57 0.56 0.55 0.55 0.55 0.55 0.56 0.56 0.55 0.55 0.55 0.55 0.55 0.56 0.56 0.55 0.53 0.51 0.51 0.51 0.53 0.54 0.55 0.55 0.50 0.48 0.43 0.41 0.20 0.10 0.21 0.35 0.60 0.59 0.54 0.40 0.40 0.49 0.72 0.78 0.72 0.72 0.73 0.77 0.88 0.98 1.16 1.30 1.32 1.21 1.32 1.35 1.31 1.44 1.51 1.42 1.28 1.35 1.43 1.53 1.41 1.56 1.68 1.68 1.62 1.67 1.57 1.51 1.32 1.24 1.44 1.32 1.15 1.03 0.81 0.78 0.89 0.98 1.10 1.06 1.04 1.02 1.05 1.13 1.14 1.08
0.59 0.59 0.58 0.57 0.57 0.56 0.56 0.55 0.55 0.55 0.55 0.55 0.55 0.55 0.54 0.54 0.55 0.56 0.55 0.54 0.52 0.51 0.52 0.53 0.55 0.55 0.55 0.48 0.41 0.36 0.13 0.06 0.32 0.35 0.51 0.62 0.58 0.43 0.39 0.52 0.71 0.75 0.70 0.67 0.65 0.74 0.86 0.98 1.15 1.17 1.18 1.21 1.20 1.16 1.32 1.41 1.52 1.15 1.33 1.40 1.43 1.47 1.45 1.65 1.61 1.64 1.65 1.58 1.53 1.45 1.50 1.48 1.32 1.23 1.28 1.16 1.02 1.05 1.13 1.11 1.21 1.17 1.14 1.15 1.16 1.15 1.09 1.06
0.60 0.60 0.59 0.59 0.59 0.58 0.58 0.57 0.55 0.54 0.54 0.54 0.54 0.54 0.53 0.53 0.53 0.54 0.55 0.54 0.53 0.52 0.52 0.54 0.54 0.56 0.53 0.50 0.47 0.23 0.11 0.21 0.29 0.36 0.58 0.57 0.55 0.44 0.42 0.53 0.73 0.65 0.64 0.62 0.64 0.70 0.87 0.97 1.12 1.18 1.17 1.17 1.19 1.18 1.29 1.33 1.45 1.31 1.18 1.38 1.37 1.50 1.44 1.59 1.53 1.63 1.62 1.59 1.53 1.61 1.63 1.40 1.30 1.07 1.30 1.15 1.22 1.20 1.16 1.18 1.26 1.22 1.21 1.22 1.12 1.13 1.09 1.08
0.61 0.61 0.61 0.61 0.61 0.60 0.59 0.58 0.56 0.54 0.53 0.53 0.53 0.53 0.52 0.52 0.52 0.52 0.53 0.53 0.54 0.54 0.54 0.55 0.55 0.51 0.53 0.41 0.24 0.13 0.09 0.10 0.38 0.61 0.55 0.47 0.44 0.41 0.43 0.50 0.65 0.59 0.55 0.55 0.60 0.70 0.90 0.94 1.09 1.23 1.15 1.08 1.10 1.10 1.20 1.21 1.33 1.22 1.20 1.36 1.39 1.53 1.55 1.62 1.63 1.62 1.62 1.61 1.70 1.66 1.46 1.39 1.39 1.24 1.26 1.15 1.22 1.22 1.17 1.21 1.26 1.22 1.18 1.18 1.14 1.11 1.12 1.12
0.61 0.61 0.62 0.63 0.62 0.61 0.60 0.59 0.57 0.55 0.54 0.53 0.52 0.52 0.51 0.51 0.49 0.50 0.51 0.53 0.53 0.54 0.56 0.57 0.55 0.53 0.51 0.39 0.20 0.13 0.08 0.16 0.59 0.69 0.61 0.42 0.37 0.35 0.28 0.37 0.61 0.52 0.50 0.55 0.63 0.77 0.94 0.92 1.20 1.29 1.07 1.04 1.08 0.94 1.09 1.13 1.07 1.27 1.25 1.37 1.45 1.45 1.57 1.66 1.66 1.66 1.63 1.63 1.69 1.53 1.43 1.47 1.45 1.46 1.22 1.22 1.23 1.25 1.24 1.20 1.23 1.18 1.13 1.12 1.13 1.14 1.14 1.12
0.61 0.62 0.63 0.63 0.63 0.62 0.61 0.59 0.58 0.57 0.55 0.53 0.52 0.51 0.50 0.49 0.48 0.48 0.50 0.51 0.52 0.53 0.57 0.59 0.57 0.55 0.44 0.29 0.20 0.11 0.25 0.58 0.76 0.80 0.58 0.42 0.31 0.25 0.28 0.35 0.50 0.47 0.40 0.45 0.58 0.78 0.88 1.00 1.24 1.34 1.13 1.07 1.01 0.84 0.96 1.10 1.14 1.32 1.27 1.41 1.41 1.46 1.57 1.70 1.62 1.63 1.66 1.61 1.69 1.50 1.43 1.40 1.52 1.37 1.04 1.31 1.29 1.28 1.23 1.17 1.21 1.11 1.06 1.10 1.14 1.16 1.18 1.13
0.62 0.62 0.63 0.63 0.63 0.62 0.61 0.60 0.59 0.57 0.55 0.53 0.51 0.50 0.48 0.48 0.46 0.47 0.49 0.50 0.51 0.53 0.55 0.57 0.61 0.52 0.35 0.30 0.14 0.11 0.46 0.64 0.70 0.77 0.60 0.44 0.32 0.21 0.25 0.37 0.45 0.42 0.36 0.36 0.47 0.74 0.88 1.10 1.29 1.31 1.16 0.97 0.93 0.82 0.94 1.18 1.35 1.29 1.34 1.41 1.42 1.46 1.54 1.66 1.65 1.62 1.66 1.55 1.69 1.61 1.48 1.52 1.51 1.40 1.17 1.27 1.32 1.30 1.18 1.16 1.17 1.09 1.06 1.09 1.14 1.15 1.20 1.20
0.62 0.62 0.63 0.63 0.63 0.62 0.62 0.61 0.59 0.57 0.54 0.52 0.50 0.48 0.47 0.47 0.46 0.46 0.48 0.49 0.49 0.54 0.57 0.57 0.57 0.53 0.42 0.26 0.17 0.14 0.54 0.59 0.66 0.73 0.58 0.46 0.35 0.34 0.34 0.39 0.45 0.44 0.35 0.29 0.36 0.60 0.77 1.04 1.18 1.19 0.92 0.98 0.74 0.80 0.90 1.26 1.29 1.25 1.34 1.17 1.23 1.37 1.31 1.55 1.52 1.59 1.63 1.55 1.72 1.67 1.48 1.36 1.38 1.24 1.42 1.44 1.41 1.30 1.20 1.17 1.16 1.08 1.07 1.10 1.14 1.17 1.20 1.22
0.62 0.63 0.63 0.63 0.63 0.63 0.62 0.61 0.60 0.56 0.54 0.51 0.48 0.46 0.46 0.45 0.44 0.46 0.48 0.48 0.51 0.53 0.55 0.55 0.56 0.53 0.38 0.19 0.17 0.24 0.42 0.52 0.60 0.73 0.57 0.47 0.42 0.44 0.42 0.37 0.40 0.44 0.41 0.33 0.29 0.44 0.65 0.91 1.12 1.07 1.03 0.86 0.78 0.64 0.85 0.92 1.22 1.33 1.32 1.20 1.13 1.14 1.16 1.43 1.59 1.62 1.57 1.64 1.73 1.64 1.05 1.19 1.34 1.45 1.53 1.56 1.46 1.34 1.21 1.16 1.12 1.08 1.09 1.09 1.13 1.17 1.23 1.27
0.62 0.64 0.64 0.63 0.63 0.63 0.62 0.62 0.60 0.57 0.53 0.50 0.47 0.45 0.44 0.43 0.44 0.47 0.48 0.49 0.51 0.53 0.53 0.54 0.54 0.48 0.35 0.21 0.22 0.33 0.49 0.63 0.68 0.67 0.58 0.53 0.40 0.39 0.42 0.39 0.37 0.39 0.40 0.35 0.36 0.36 0.48 0.78 1.02 1.06 1.06 0.84 0.73 0.84 0.83 0.98 1.21 1.06 1.20 1.28 1.03 0.95 1.00 1.36 1.44 1.53 1.41 1.67 1.69 1.64 1.08 1.17 1.39 1.49 1.61 1.62 1.54 1.34 1.16 1.15 1.10 1.09 1.08 1.08 1.13 1.18 1.20 1.25
0.63 0.64 0.64 0.64 0.63 0.63 0.63 0.62 0.59 0.55 0.52 0.50 0.47 0.44 0.43 0.43 0.47 0.50 0.50 0.48 0.52 0.54 0.54 0.55 0.51 0.40 0.28 0.25 0.33 0.50 0.70 0.69 0.60 0.62 0.63 0.53 0.43 0.38 0.38 0.38 0.35 0.35 0.34 0.33 0.32 0.35 0.42 0.67 0.93 1.00 0.83 0.84 0.78 0.70 0.82 0.93 1.06 1.15 0.98 0.91 1.05 0.96 1.02 1.28 1.50 1.49 1.30 1.54 1.67 1.49 1.12 1.20 1.39 1.51 1.64 1.65 1.57 1.40 1.17 1.14 1.11 1.09 1.07 1.08 1.12 1.15 1.19 1.23
0.64 0.65 0.65 0.64 0.64 0.63 0.63 0.61 0.58 0.55 0.53 0.50 0.46 0.45 0.47 0.50 0.52 0.53 0.56 0.56 0.59 0.59 0.59 0.43 0.41 0.34 0.23 0.18 0.25 0.52 0.59 0.51 0.55 0.67 0.68 0.60 0.50 0.38 0.41 0.36 0.35 0.35 0.32 0.29 0.33 0.35 0.44 0.65 0.85 0.88 0.79 0.72 0.62 0.61 0.79 0.82 0.87 1.04 0.95 0.88 0.90 0.99 0.99 1.11 1.32 1.50 1.53 1.52 1.57 1.40 1.10 1.24 1.32 1.60 1.66 1.66 1.58 1.44 1.21 1.14 1.11 1.09 1.09 1.09 1.11 1.15 1.21 1.24
0.64 0.65 0.65 0.64 0.63 0.63 0.63 0.60 0.57 0.56 0.55 0.52 0.53 0.55 0.58 0.59 0.61 0.60 0.62 0.63 0.63 0.65 0.55 0.35 0.39 0.37 0.16 0.27 0.39 0.43 0.47 0.53 0.65 0.64 0.65 0.62 0.54 0.44 0.37 0.35 0.30 0.33 0.31 0.29 0.33 0.45 0.61 0.74 0.87 0.84 0.74 0.61 0.54 0.62 0.62 0.62 0.67 0.83 0.95 0.87 0.98 0.92 0.98 0.97 1.28 1.42 1.47 1.48 1.30 1.41 1.23 1.25 1.41 1.55 1.64 1.65 1.61 1.48 1.26 1.15 1.12 1.11 1.13 1.13 1.13 1.16 1.19 1.20
0.64 0.64 0.64 0.64 0.64 0.63 0.62 0.60 0.58 0.59 0.60 0.59 0.60 0.60 0.60 0.70 0.67 0.64 0.62 0.61 0.63 0.60 0.56 0.54 0.44 0.23 0.16 0.28 0.28 0.38 0.53 0.55 0.56 0.61 0.62 0.60 0.51 0.40 0.34 0.32 0.31 0.32 0.29 0.24 0.35 0.48 0.64 0.66 0.77 0.61 0.59 0.54 0.50 0.48 0.51 0.46 0.58 0.72 0.80 0.80 0.86 0.99 1.01 0.96 1.00 1.22 1.36 1.41 1.33 1.31 1.25 1.28 1.41 1.51 1.56 1.60 1.64 1.51 1.34 1.21 1.15 1.12 1.14 1.15 1.16 1.17 1.18 1.19
0.65 0.65 0.64 0.65 0.64 0.63 0.61 0.60 0.61 0.64 0.64 0.63 0.65 0.66 0.66 0.68 0.70 0.65 0.53 0.50 0.38 0.29 0.23 0.27 0.17 0.16 0.12 0.25 0.37 0.44 0.54 0.59 0.61 0.60 0.54 0.48 0.39 0.38 0.37 0.36 0.32 0.25 0.23 0.20 0.26 0.46 0.58 0.57 0.63 0.56 0.48 0.47 0.44 0.44 0.48 0.50 0.62 0.66 0.82 0.82 0.88 0.84 0.90 0.92 1.10 1.31 1.30 1.20 1.23 1.25 1.14 1.21 1.35 1.44 1.53 1.58 1.63 1.51 1.43 1.36 1.24 1.19 1.18 1.18 1.16 1.17 1.17 1.17
0.66 0.65 0.65 0.64 0.63 0.62 0.60 0.63 0.65 0.66 0.67 0.60 0.58 0.57 0.56 0.39 0.35 0.36 0.49 0.44 0.31 0.26 0.26 0.30 0.31 0.31 0.31 0.34 0.38 0.49 0.60 0.63 0.53 0.56 0.57 0.46 0.34 0.32 0.31 0.29 0.25 0.23 0.22 0.18 0.21 0.36 0.53 0.41 0.40 0.42 0.47 0.47 0.45 0.45 0.48 0.55 0.66 0.71 0.76 0.85 0.84 0.86 0.91 1.05 1.11 1.25 1.35 1.21 1.17 1.24 1.26 1.26 1.34 1.41 1.48 1.55 1.62 1.56 1.48 1.36 1.26 1.20 1.17 1.16 1.15 1.16 1.18 1.16
0.66 0.65 0.64 0.64 0.63 0.61 0.62 0.65 0.66 0.68 0.67 0.61 0.57 0.46 0.28 0.25 0.20 0.19 0.24 0.27 0.32 0.34 0.30 0.31 0.29 0.31 0.31 0.37 0.43 0.45 0.46 0.51 0.58 0.54 0.56 0.50 0.37 0.30 0.26 0.26 0.20 0.16 0.22 0.24 0.23 0.34 0.46 0.35 0.37 0.45 0.51 0.49 0.45 0.45 0.48 0.55 0.67 0.64 0.68 0.72 0.74 0.81 0.80 1.00 1.05 1.21 1.32 1.12 1.12 1.26 1.24 1.27 1.35 1.45 1.50 1.56 1.53 1.48 1.44 1.36 1.29 1.23 1.20 1.18 1.15 1.14 1.16 1.18
0.65 0.65 0.65 0.64 0.63 0.62 0.63 0.67 0.68 0.67 0.68 0.65 0.57 0.42 0.41 0.38 0.40 0.41 0.35 0.21 0.27 0.32 0.31 0.33 0.36 0.34 0.41 0.42 0.46 0.49 0.50 0.46 0.48 0.53 0.58 0.47 0.38 0.29 0.28 0.28 0.20 0.16 0.26 0.27 0.35 0.34 0.33 0.28 0.37 0.49 0.51 0.49 0.46 0.44 0.46 0.47 0.49 0.54 0.60 0.70 0.74 0.76 0.95 1.02 1.08 1.19 1.24 1.15 1.07 1.22 1.15 1.23 1.35 1.43 1.50 1.49 1.46 1.51 1.54 1.44 1.33 1.26 1.21 1.19 1.18 1.17 1.18 1.19
0.65 0.64 0.63 0.64 0.65 0.66 0.66 0.67 0.68 0.68 0.64 0.57 0.48 0.47 0.40 0.47 0.55 0.52 0.45 0.32 0.25 0.30 0.29 0.30 0.30 0.33 0.36 0.43 0.45 0.50 0.39 0.40 0.40 0.47 0.49 0.45 0.37 0.34 0.31 0.26 0.22 0.23 0.26 0.28 0.30 0.32 0.28 0.29 0.41 0.49 0.50 0.46 0.43 0.42 0.42 0.43 0.46 0.44 0.52 0.61 0.62 0.72 0.71 0.65 0.90 1.08 1.17 1.09 1.05 1.17 1.12 1.21 1.36 1.44 1.49 1.52 1.53 1.54 1.60 1.56 1.45 1.39 1.27 1.21 1.20 1.20 1.18 1.16
0.62 0.62 0.62 0.62 0.63 0.62 0.65 0.66 0.67 0.61 0.57 0.54 0.51 0.48 0.53 0.58 0.58 0.55 0.41 0.26 0.22 0.24 0.29 0.35 0.36 0.34 0.32 0.34 0.47 0.44 0.39 0.43 0.44 0.40 0.54 0.45 0.35 0.39 0.33 0.29 0.24 0.25 0.25 0.28 0.33 0.32 0.29 0.30 0.44 0.46 0.46 0.44 0.40 0.40 0.40 0.40 0.40 0.45 0.43 0.59 0.69 0.63 0.67 0.69 0.73 1.01 1.12 1.12 1.21 1.17 1.08 1.10 1.22 1.22 1.30 1.48 1.59 1.56 1.57 1.58 1.53 1.47 1.41 1.38 1.36 1.31 1.25 1.18
0.61 0.62 0.61 0.61 0.61 0.66 0.68 0.71 0.57 0.51 0.55 0.54 0.50 0.61 0.64 0.61 0.60 0.57 0.39 0.29 0.26 0.24 0.38 0.36 0.40 0.35 0.37 0.51 0.53 0.41 0.42 0.46 0.46 0.50 0.51 0.47 0.39 0.37 0.36 0.37 0.31 0.24 0.28 0.32 0.33 0.34 0.33 0.34 0.39 0.40 0.42 0.42 0.41 0.38 0.39 0.39 0.39 0.41 0.45 0.54 0.63 0.63 0.65 0.71 0.84 0.88 0.85 0.84 1.03 1.04 0.80 0.84 1.09 1.17 1.20 1.34 1.42 1.42 1.55 1.52 1.49 1.47 1.42 1.37 1.30 1.28 1.29 1.27
0.61 0.61 0.60 0.60 0.62 0.63 0.67 0.53 0.47 0.51 0.48 0.44 0.50 0.59 0.63 0.64 0.61 0.56 0.41 0.23 0.19 0.26 0.31 0.26 0.36 0.31 0.43 0.39 0.49 0.45 0.44 0.37 0.48 0.52 0.52 0.52 0.54 0.42 0.39 0.33 0.34 0.25 0.30 0.32 0.32 0.32 0.35 0.38 0.34 0.34 0.37 0.39 0.40 0.38 0.39 0.40 0.38 0.39 0.43 0.52 0.58 0.58 0.69 0.74 0.75 0.78 0.65 0.61 0.87 1.08 0.76 0.70 1.01 1.06 1.17 1.27 1.30 1.33 1.49 1.50 1.52 1.50 1.47 1.40 1.32 1.30 1.28 1.26
0.60 0.59 0.60 0.60 0.60 0.61 0.42 0.34 0.46 0.48 0.39 0.45 0.58 0.61 0.65 0.68 0.66 0.55 0.36 0.20 0.19 0.27 0.27 0.30 0.33 0.35 0.40 0.43 0.47 0.45 0.26 0.33 0.50 0.57 0.52 0.57 0.48 0.53 0.36 0.32 0.32 0.36 0.36 0.37 0.31 0.27 0.35 0.35 0.32 0.30 0.31 0.34 0.36 0.36 0.40 0.40 0.39 0.38 0.47 0.49 0.54 0.57 0.62 0.64 0.65 0.70 0.73 0.92 0.97 1.00 0.92 0.75 0.72 0.92 1.18 1.28 1.25 1.27 1.34 1.42 1.47 1.50 1.49 1.43 1.38 1.33 1.30 1.29
0.59 0.59 0.59 0.59 0.57 0.55 0.44 0.50 0.50 0.47 0.49 0.58 0.69 0.68 0.71 0.71 0.64 0.55 0.33 0.15 0.16 0.30 0.28 0.30 0.37 0.46 0.42 0.45 0.50 0.36 0.41 0.45 0.36 0.48 0.56 0.58 0.55 0.46 0.40 0.34 0.30 0.31 0.35 0.32 0.19 0.30 0.31 0.30 0.30 0.27 0.25 0.25 0.29 0.37 0.42 0.42 0.39 0.40 0.46 0.51 0.50 0.52 0.55 0.60 0.65 0.69 0.78 0.78 0.70 0.85 0.94 0.71 0.70 0.89 1.12 1.23 1.12 1.16 1.23 1.32 1.39 1.46 1.49 1.47 1.41 1.36 1.32 1.33
0.57 0.57 0.56 0.56 0.57 0.58 0.64 0.59 0.57 0.52 0.61 0.67 0.69 0.70 0.72 0.70 0.60 0.43 0.23 0.16 0.28 0.27 0.39 0.31 0.45 0.37 0.43 0.46 0.42 0.39 0.41 0.43 0.35 0.47 0.55 0.58 0.55 0.51 0.35 0.39 0.36 0.35 0.36 0.33 0.26 0.27 0.28 0.29 0.30 0.30 0.26 0.21 0.25 0.33 0.41 0.41 0.38 0.42 0.49 0.60 0.62 0.68 0.73 0.74 0.67 0.67 0.71 0.69 0.59 0.72 0.85 0.63 0.63 0.82 0.94 1.13 1.11 1.11 1.17 1.28 1.37 1.43 1.46 1.47 1.44 1.40 1.37 1.35
0.55 0.54 0.54 0.55 0.55 0.58 0.61 0.66 0.57 0.62 0.67 0.67 0.67 0.69 0.68 0.59 0.45 0.24 0.15 0.13 0.27 0.22 0.32 0.31 0.33 0.33 0.41 0.40 0.37 0.37 0.40 0.39 0.45 0.50 0.52 0.49 0.49 0.51 0.48 0.51 0.40 0.34 0.31 0.34 0.31 0.33 0.34 0.34 0.35 0.29 0.26 0.26 0.26 0.29 0.35 0.40 0.42 0.44 0.53 0.58 0.66 0.73 0.72 0.72 0.69 0.67 0.65 0.49 0.57 0.74 0.82 0.73 0.55 0.72 0.81 0.83 0.89 1.04 1.16 1.29 1.36 1.42 1.46 1.50 1.50 1.46 1.41 1.36
0.53 0.53 0.53 0.57 0.48 0.56 0.58 0.48 0.53 0.62 0.64 0.66 0.68 0.64 0.55 0.40 0.24 0.17 0.12 0.17 0.26 0.23 0.28 0.26 0.29 0.36 0.33 0.38 0.33 0.35 0.38 0.35 0.38 0.46 0.43 0.48 0.45 0.46 0.46 0.40 0.45 0.36 0.32 0.31 0.28 0.30 0.31 0.32 0.29 0.31 0.33 0.30 0.29 0.25 0.31 0.37 0.39 0.41 0.47 0.59 0.59 0.64 0.74 0.65 0.60 0.66 0.48 0.43 0.59 0.72 0.73 0.77 0.50 0.62 0.81 0.97 1.07 1.09 1.14 1.16 1.26 1.33 1.39 1.45 1.48 1.48 1.46 1.43
0.52 0.53 0.57 0.57 0.57 0.65 0.47 0.44 0.54 0.63 0.65 0.66 0.62 0.52 0.44 0.23 0.24 0.16 0.16 0.31 0.18 0.21 0.22 0.21 0.26 0.26 0.26 0.28 0.32 0.31 0.31 0.32 0.36 0.38 0.37 0.40 0.40 0.38 0.39 0.35 0.36 0.27 0.24 0.25 0.24 0.28 0.25 0.27 0.30 0.30 0.36 0.30 0.26 0.23 0.24 0.30 0.35 0.37 0.39 0.49 0.39 0.48 0.52 0.43 0.50 0.38 0.39 0.42 0.58 0.70 0.73 0.60 0.56 0.71 0.83 0.96 1.02 1.11 1.17 1.22 1.28 1.34 1.38 1.43 1.48 1.49 1.50 1.48
0.51 0.55 0.58 0.57 0.60 0.56 0.57 0.59 0.63 0.62 0.63 0.61 0.49 0.40 0.25 0.20 0.16 0.22 0.23 0.26 0.20 0.27 0.22 0.27 0.23 0.22 0.24 0.22 0.24 0.27 0.30 0.27 0.32 0.36 0.39 0.40 0.40 0.39 0.41 0.39 0.41 0.35 0.25 0.28 0.24 0.23 0.23 0.27 0.26 0.26 0.29 0.31 0.28 0.20 0.19 0.20 0.29 0.32 0.32 0.41 0.36 0.37 0.38 0.32 0.39 0.45 0.44 0.48 0.64 0.64 0.79 0.54 0.67 0.75 0.90 0.90 1.00 1.11 1.18 1.23 1.31 1.37 1.40 1.42 1.46 1.51 1.52 1.52
0.51 0.54 0.53 0.58 0.58 0.60 0.62 0.65 0.62 0.62 0.56 0.49 0.37 0.28 0.23 0.18 0.17 0.29 0.26 0.26 0.24 0.29 0.28 0.25 0.24 0.23 0.22 0.21 0.23 0.26 0.24 0.27 0.30 0.35 0.37 0.35 0.38 0.36 0.37 0.39 0.41 0.36 0.33 0.32 0.23 0.23 0.18 0.16 0.19 0.23 0.20 0.30 0.27 0.25 0.23 0.21 0.24 0.29 0.33 0.38 0.37 0.42 0.36 0.29 0.34 0.28 0.30 0.40 0.51 0.73 0.55 0.48 0.48 0.60 0.89 0.97 1.05 1.09 1.12 1.20 1.30 1.38 1.44 1.49 1.53 1.53 1.55 1.54
0.52 0.56 0.58 0.59 0.60 0.63 0.64 0.65 0.63 0.61 0.53 0.40 0.28 0.23 0.18 0.18 0.23 0.22 0.23 0.25 0.27 0.27 0.25 0.27 0.24 0.23 0.21 0.23 0.26 0.26 0.25 0.24 0.32 0.35 0.34 0.34 0.33 0.35 0.35 0.35 0.39 0.40 0.36 0.29 0.30 0.26 0.22 0.20 0.25 0.25 0.28 0.28 0.24 0.27 0.28 0.24 0.23 0.28 0.32 0.37 0.36 0.39 0.47 0.35 0.39 0.35 0.35 0.36 0.40 0.53 0.52 0.63 0.59 0.88 0.94 1.02 1.04 1.02 1.07 1.13 1.24 1.30 1.41 1.48 1.50 1.52 1.54 1.56
0.52 0.52 0.60 0.53 0.54 0.57 0.65 0.64 0.62 0.59 0.44 0.31 0.23 0.20 0.18 0.22 0.21 0.27 0.25 0.31 0.28 0.25 0.24 0.25 0.24 0.22 0.23 0.24 0.25 0.24 0.27 0.28 0.32 0.34 0.32 0.33 0.35 0.33 0.36 0.37 0.36 0.39 0.35 0.30 0.33 0.23 0.23 0.19 0.26 0.28 0.27 0.29 0.27 0.28 0.27 0.28 0.16 0.23 0.27 0.26 0.30 0.53 0.50 0.42 0.43 0.46 0.47 0.40 0.37 0.59 0.52 0.59 0.77 0.78 0.87 0.93 0.94 0.96 1.02 1.10 1.18 1.24 1.33 1.41 1.43 1.50 1.55 1.58
0.45 0.54 0.47 0.51 0.52 0.58 0.62 0.62 0.59 0.50 0.39 0.27 0.21 0.19 0.23 0.25 0.29 0.28 0.30 0.28 0.27 0.28 0.24 0.19 0.20 0.21 0.21 0.23 0.24 0.25 0.27 0.32 0.32 0.31 0.28 0.34 0.32 0.34 0.34 0.35 0.38 0.38 0.39 0.36 0.33 0.36 0.24 0.22 0.27 0.26 0.23 0.26 0.32 0.32 0.31 0.30 0.29 0.25 0.20 0.27 0.36 0.44 0.46 0.38 0.30 0.35 0.36 0.30 0.36 0.49 0.45 0.51 0.53 0.49 0.80 0.84 0.84 0.90 0.99 1.06 1.15 1.22 1.30 1.32 1.39 1.45 1.54 1.59
0.48 0.49 0.50 0.47 0.52 0.60 0.62 0.60 0.53 0.42 0.33 0.26 0.21 0.23 0.30 0.24 0.30 0.29 0.30 0.30 0.29 0.28 0.23 0.21 0.22 0.25 0.21 0.23 0.23 0.27 0.30 0.28 0.31 0.32 0.30 0.33 0.28 0.35 0.32 0.32 0.37 0.38 0.39 0.42 0.35 0.33 0.32 0.21 0.25 0.28 0.28 0.28 0.31 0.31 0.30 0.33 0.32 0.26 0.25 0.33 0.28 0.27 0.27 0.34 0.33 0.25 0.26 0.26 0.32 0.40 0.50 0.53 0.57 0.57 0.71 0.72 0.77 0.86 0.95 1.05 1.09 1.13 1.21 1.27 1.35 1.42 1.49 1.57
0.49 0.44 0.36 0.45 0.59 0.61 0.60 0.59 0.46 0.34 0.26 0.20 0.21 0.20 0.25 0.26 0.30 0.28 0.30 0.31 0.30 0.26 0.23 0.23 0.22 0.24 0.25 0.23 0.25 0.28 0.30 0.26 0.32 0.31 0.29 0.32 0.26 0.31 0.31 0.33 0.33 0.39 0.42 0.39 0.35 0.37 0.34 0.24 0.25 0.31 0.28 0.30 0.30 0.28 0.21 0.25 0.31 0.31 0.33 0.28 0.32 0.31 0.30 0.28 0.29 0.34 0.32 0.29 0.27 0.32 0.43 0.43 0.60 0.65 0.72 0.75 0.84 0.91 0.96 1.00 1.05 1.13 1.20 1.25 1.30 1.35 1.42 1.50
0.41 0.39 0.31 0.49 0.59 0.61 0.60 0.50 0.37 0.30 0.24 0.18 0.20 0.21 0.28 0.24 0.27 0.29 0.31 0.31 0.27 0.27 0.24 0.25 0.26 0.24 0.25 0.25 0.27 0.25 0.30 0.30 0.31 0.32 0.30 0.33 0.28 0.32 0.30 0.33 0.32 0.36 0.42 0.43 0.38 0.39 0.33 0.33 0.24 0.29 0.32 0.31 0.24 0.26 0.24 0.26 0.25 0.24 0.25 0.26 0.27 0.29 0.35 0.34 0.33 0.31 0.30 0.29 0.28 0.29 0.30 0.42 0.62 0.80 0.81 0.83 0.90 0.98 1.01 1.02 1.08 1.15 1.23 1.28 1.32 1.35 1.42 1.51
0.46 0.37 0.34 0.51 0.55 0.57 0.52 0.38 0.29 0.24 0.23 0.25 0.26 0.24 0.26 0.25 0.27 0.28 0.30 0.32 0.31 0.34 0.30 0.28 0.27 0.25 0.26 0.25 0.25 0.28 0.27 0.29 0.30 0.30 0.29 0.30 0.27 0.25 0.32 0.33 0.34 0.33 0.39 0.40 0.39 0.39 0.34 0.32 0.26 0.30 0.27 0.25 0.29 0.32 0.29 0.30 0.30 0.27 0.24 0.24 0.25 0.24 0.25 0.22 0.23 0.34 0.36 0.33 0.30 0.26 0.27 0.44 0.68 0.90 0.92 0.93 0.99 1.02 1.09 1.09 1.10 1.17 1.23 1.29 1.34 1.40 1.44 1.45
0.38 0.29 0.33 0.51 0.51 0.52 0.38 0.26 0.27 0.30 0.25 0.22 0.21 0.26 0.23 0.32 0.27 0.27 0.29 0.29 0.30 0.30 0.35 0.32 0.32 0.30 0.28 0.27 0.28 0.28 0.27 0.26 0.28 0.28 0.29 0.27 0.30 0.29 0.34 0.37 0.36 0.36 0.35 0.34 0.37 0.43 0.41 0.38 0.32 0.30 0.29 0.28 0.30 0.35 0.36 0.35 0.35 0.33 0.29 0.25 0.28 0.28 0.28 0.23 0.19 0.25 0.35 0.39 0.43 0.39 0.31 0.40 0.77 0.92 0.97 1.02 1.06 1.07 1.11 1.16 1.14 1.20 1.25 1.30 1.36 1.43 1.49 1.49
0.37 0.33 0.45 0.51 0.52 0.43 0.32 0.25 0.29 0.25 0.23 0.25 0.30 0.27 0.29 0.27 0.27 0.27 0.28 0.29 0.29 0.30 0.31 0.31 0.31 0.30 0.31 0.31 0.29 0.29 0.29 0.26 0.27 0.26 0.28 0.29 0.31 0.33 0.36 0.39 0.38 0.37 0.36 0.36 0.40 0.45 0.49 0.37 0.32 0.33 0.34 0.33 0.33 0.36 0.37 0.36 0.35 0.32 0.31 0.30 0.29 0.27 0.27 0.26 0.25 0.30 0.29 0.38 0.34 0.35 0.29 0.44 0.73 0.94 0.98 1.05 1.11 1.13 1.17 1.20 1.18 1.22 1.28 1.32 1.35 1.41 1.45 1.48
0.41 0.38 0.39 0.49 0.52 0.42 0.29 0.20 0.20 0.21 0.23 0.25 0.26 0.24 0.28 0.26 0.27 0.26 0.26 0.28 0.29 0.28 0.30 0.31 0.32 0.35 0.31 0.34 0.31 0.28 0.31 0.24 0.28 0.28 0.26 0.30 0.30 0.38 0.37 0.38 0.40 0.36 0.35 0.34 0.34 0.46 0.35 0.38 0.36 0.30 0.28 0.29 0.29 0.32 0.33 0.36 0.35 0.32 0.31 0.30 0.30 0.31 0.30 0.32 0.32 0.37 0.29 0.35 0.38 0.31 0.24 0.36 0.66 0.87 0.95 1.01 1.04 1.06 1.11 1.20 1.24 1.20 1.26 1.31 1.36 1.41 1.46 1.49
0.42 0.41 0.40 0.39 0.43 0.36 0.26 0.25 0.23 0.22 0.22 0.23 0.23 0.23 0.24 0.26 0.28 0.30 0.30 0.29 0.34 0.33 0.31 0.29 0.33 0.35 0.33 0.35 0.31 0.32 0.32 0.28 0.26 0.29 0.29 0.31 0.31 0.36 0.37 0.36 0.38 0.37 0.43 0.46 0.47 0.52 0.37 0.38 0.35 0.28 0.25 0.23 0.21 0.22 0.25 0.28 0.30 0.33 0.35 0.34 0.32 0.31 0.33 0.30 0.25 0.30 0.24 0.36 0.39 0.33 0.33 0.50 0.69 0.81 0.85 0.92 0.94 1.01 1.12 1.18 1.24 1.28 1.28 1.31 1.34 1.39 1.44 1.48
0.32 0.24 0.31 0.31 0.35 0.31 0.30 0.31 0.27 0.24 0.21 0.22 0.21 0.23 0.25 0.24 0.27 0.30 0.32 0.31 0.35 0.36 0.36 0.35 0.34 0.35 0.31 0.30 0.28 0.29 0.29 0.32 0.28 0.28 0.29 0.29 0.31 0.33 0.36 0.36 0.36 0.36 0.43 0.44 0.48 0.46 0.36 0.38 0.38 0.36 0.32 0.29 0.30 0.30 0.34 0.37 0.35 0.30 0.34 0.36 0.36 0.34 0.36 0.33 0.36 0.29 0.24 0.33 0.34 0.39 0.42 0.47 0.52 0.66 0.75 0.81 0.89 0.92 1.00 1.08 1.14 1.19 1.27 1.33 1.37 1.39 1.43 1.49
0.39 0.28 0.28 0.24 0.29 0.28 0.26 0.29 0.26 0.25 0.23 0.26 0.21 0.24 0.23 0.23 0.24 0.28 0.32 0.29 0.34 0.35 0.34 0.35 0.34 0.30 0.30 0.30 0.28 0.28 0.31 0.29 0.31 0.29 0.29 0.30 0.32 0.34 0.37 0.36 0.36 0.37 0.39 0.40 0.45 0.40 0.37 0.33 0.36 0.37 0.37 0.36 0.37 0.36 0.36 0.37 0.35 0.36 0.35 0.36 0.40 0.39 0.37 0.33 0.29 0.28 0.37 0.33 0.30 0.43 0.51 0.43 0.48 0.63 0.73 0.76 0.86 0.93 1.00 1.06 1.13 1.19 1.25 1.28 1.33 1.38 1.43 1.47
0.29 0.37 0.40 0.42 0.24 0.21 0.22 0.22 0.29 0.25 0.27 0.24 0.23 0.25 0.24 0.23 0.23 0.22 0.27 0.30 0.32 0.35 0.29 0.33 0.35 0.36 0.37 0.35 0.34 0.29 0.31 0.30 0.30 0.27 0.30 0.31 0.31 0.33 0.32 0.34 0.33 0.36 0.37 0.37 0.45 0.39 0.35 0.32 0.37 0.37 0.37 0.39 0.39 0.38 0.39 0.37 0.38 0.39 0.40 0.40 0.39 0.42 0.40 0.32 0.32 0.35 0.38 0.30 0.28 0.42 0.50 0.44 0.51 0.63 0.76 0.81 0.88 0.92 0.97 1.07 1.14 1.24 1.27 1.29 1.29 1.30 1.34 1.39
0.48 0.47 0.45 0.49 0.30 0.31 0.33 0.31 0.32 0.27 0.24 0.24 0.23 0.24 0.23 0.22 0.22 0.24 0.23 0.24 0.27 0.28 0.30 0.26 0.28 0.34 0.36 0.40 0.37 0.32 0.33 0.28 0.27 0.31 0.30 0.29 0.29 0.30 0.29 0.32 0.33 0.36 0.35 0.35 0.40 0.43 0.37 0.34 0.40 0.39 0.37 0.39 0.39 0.39 0.39 0.37 0.38 0.40 0.41 0.43 0.45 0.45 0.44 0.42 0.40 0.43 0.41 0.38 0.41 0.44 0.51 0.52 0.61 0.69 0.80 0.85 0.99 1.02 1.04 1.11 1.17 1.19 1.21 1.22 1.23 1.23 1.25 1.29
0.37 0.41 0.37 0.48 0.43 0.37 0.36 0.31 0.28 0.26 0.23 0.26 0.20 0.24 0.23 0.22 0.21 0.23 0.25 0.23 0.20 0.23 0.31 0.26 0.29 0.31 0.32 0.33 0.34 0.31 0.34 0.35 0.34 0.30 0.33 0.31 0.30 0.32 0.29 0.31 0.32 0.34 0.35 0.32 0.37 0.43 0.36 0.35 0.40 0.41 0.36 0.37 0.41 0.40 0.39 0.38 0.37 0.39 0.42 0.47 0.48 0.48 0.49 0.49 0.49 0.48 0.49 0.45 0.48 0.49 0.50 0.52 0.74 0.86 0.85 0.97 1.04 1.04 1.06 1.04 1.08 1.13 1.18 1.18 1.18 1.18 1.20 1.22
0.58 0.61 0.57 0.41 0.31 0.34 0.34 0.30 0.27 0.26 0.24 0.25 0.22 0.24 0.24 0.23 0.21 0.23 0.21 0.27 0.25 0.24 0.26 0.26 0.29 0.31 0.32 0.32 0.34 0.35 0.39 0.39 0.39 0.37 0.38 0.36 0.31 0.35 0.30 0.32 0.35 0.31 0.33 0.32 0.33 0.38 0.36 0.36 0.41 0.40 0.34 0.34 0.40 0.42 0.39 0.38 0.37 0.37 0.40 0.44 0.47 0.46 0.45 0.50 0.49 0.56 0.48 0.43 0.48 0.49 0.45 0.49 0.72 0.87 0.90 0.96 0.99 0.96 0.96 1.02 1.06 1.09 1.14 1.14 1.12 1.14 1.16 1.18
0.63 0.68 0.69 0.51 0.29 0.38 0.30 0.33 0.31 0.28 0.23 0.27 0.26 0.28 0.23 0.22 0.23 0.24 0.20 0.27 0.28 0.30 0.31 0.30 0.32 0.30 0.30 0.31 0.32 0.35 0.40 0.41 0.41 0.42 0.41 0.41 0.42 0.42 0.41 0.39 0.37 0.34 0.33 0.32 0.35 0.33 0.33 0.32 0.33 0.36 0.33 0.33 0.40 0.42 0.42 0.41 0.36 0.33 0.36 0.45 0.49 0.54 0.54 0.58 0.64 0.67 0.62 0.62 0.48 0.41 0.43 0.63 0.75 0.86 0.82 0.87 0.93 0.95 1.01 1.06 1.06 1.07 1.11 1.12 1.13 1.13 1.16 1.18
Wind_Speed
14 14 13 13 13 13 12 12 11 11 11 11 11 11 11 12 12 12 12 12 13 13 13 13 13 13 14 13 13 13 13 14 14 15 16 16 16 16 15 14 16 17 16 15 14 12 10 9 7 7 7 5 3 2 2 1 1 1 2 2 1 1 3 8 11 12 14 15 15 14 13 13 13 12 13 13 14 13 12 12 12 11 12 15 16 17 18 17
15 14 14 14 14 13 13 13 12 12 12 12 12 12 12 12 12 13 13 13 13 13 14 14 14 14 14 14 14 14 14 15 15 16 17 16 16 17 17 15 16 18 17 16 15 13 11 10 9 8 7 5 4 3 2 1 0 1 2 2 2 1 3 7 9 12 15 16 15 14 13 14 14 13 13 13 13 13 13 12 13 14 14 16 18 18 17 17
15 15 15 14 14 14 14 14 13 13 13 12 12 12 12 13 13 13 14 14 14 14 14 14 14 14 14 15 14 14 14 15 16 17 17 17 17 17 18 17 17 19 18 17 16 14 13 12 11 9 7 5 4 3 2 2 0 1 1 3 4 1 4 7 10 13 15 16 16 14 14 14 13 13 12 13 13 12 12 13 14 15 16 18 18 17 17 17
16 16 15 15 15 15 15 14 14 14 14 13 13 13 13 13 13 14 14 14 14 14 14 14 15 15 15 14 14 14 14 15 16 16 15 16 18 18 18 18 18 19 18 17 16 14 13 12 12 10 7 6 5 4 3 2 1 1 2 4 5 3 4 7 13 16 16 16 15 14 14 14 13 12 12 13 12 10 12 13 15 16 17 19 19 18 17 16
17 16 16 16 16 15 15 15 15 15 15 14 14 14 14 14 14 14 14 15 15 15 15 15 15 15 15 15 14 14 15 15 15 16 16 16 18 19 19 19 19 19 18 18 16 15 14 13 12 10 8 6 6 5 3 3 2 1 1 4 5 4 5 10 16 18 16 15 14 14 14 13 12 11 12 12 10 10 12 13 15 17 18 19 19 18 17 16
17 17 16 16 16 16 16 16 16 16 16 15 15 15 14 14 14 14 15 15 15 16 16 16 16 16 15 15 15 15 16 16 15 15 16 16 19 20 20 20 20 19 19 18 17 16 15 14 13 10 8 7 6 5 3 4 4 2 2 4 4 5 9 14 16 16 16 15 14 14 13 12 12 11 11 9 9 11 13 14 15 17 18 18 18 17 16 16
18 17 17 17 17 17 17 17 17 17 16 16 16 16 15 15 15 15 15 15 16 16 16 16 16 16 16 15 15 15 16 16 15 15 16 16 19 20 21 21 20 20 20 19 18 17 16 15 13 11 9 7 7 6 4 5 5 3 1 3 5 6 11 13 13 14 14 14 14 13 13 12 12 12 11 9 10 13 15 15 15 17 18 18 17 17 16 16
18 18 18 17 17 17 17 18 18 18 18 17 17 17 16 16 16 15 15 15 16 16 16 17 17 16 16 16 16 16 17 17 15 15 15 16 19 20 21 21 21 20 20 20 19 18 17 16 14 12 10 8 7 6 6 5 6 5 3 4 5 7 10 10 10 12 12 13 13 13 12 11 12 12 11 10 12 15 16 16 16 17 18 17 17 16 16 15
19 19 18 18 18 18 19 19 19 19 19 18 18 18 17 17 16 16 15 16 16 16 16 16 17 17 16 16 17 16 17 17 16 15 16 17 18 20 21 21 22 21 20 20 19 19 18 17 15 13 11 9 7 6 6 6 6 6 5 5 6 7 8 9 10 11 11 12 12 13 12 10 12 12 11 11 14 15 16 17 16 17 17 16 16 16 16 15
20 19 19 19 19 19 19 19 19 19 19 19 19 19 18 17 17 16 16 16 16 16 16 16 17 17 17 17 17 17 17 16 16 16 17 17 18 19 20 21 22 21 20 20 20 20 18 17 16 14 11 9 7 6 6 7 7 7 7 6 6 7 7 8 10 10 11 11 11 12 12 11 11 11 10 12 15 16 16 16 16 17 17 16 16 15 15 15
21 20 20 20 20 20 20 20 20 20 20 20 20 19 19 18 17 16 16 16 16 16 16 17 17 17 17 17 18 18 17 16 16 17 18 18 19 19 20 21 22 21 20 20 20 20 19 18 17 15 12 10 8 7 7 8 8 9 8 6 5 5 5 6 9 10 10 10 11 12 12 11 11 10 11 14 15 16 16 16 16 17 16 16 16 15 14 14
21 21 21 21 21 21 20 20 20 20 20 20 20 19 19 18 17 17 16 16 16 16 16 17 17 17 17 18 19 19 18 17 16 17 19 19 19 19 20 21 21 21 20 20 21 21 19 18 18 16 13 11 10 8 7 8 9 10 8 6 5 5 5 5 8 8 9 10 12 12 12 12 12 11 12 15 16 16 16 16 16 16 16 15 15 14 13 14
22 22 22 22 22 21 21 21 20 21 20 20 19 19 18 18 17 16 16 16 16 16 17 17 17 17 18 18 19 19 19 18 17 18 19 19 19 19 20 20 20 20 21 21 21 22 20 18 18 16 13 12 11 9 9 10 11 10 8 6 7 7 5 5 7 8 9 10 12 12 12 13 13 12 14 15 16 16 16 16 17 16 15 15 15 14 14 14
23 22 22 22 22 22 21 21 21 20 20 19 18 17 17 16 16 16 16 16 15 16 16 17 17 17 18 19 19 19 19 19 19 19 20 20 20 19 20 20 20 20 20 20 21 22 21 19 18 17 15 13 11 10 10 11 11 10 9 8 7 8 7 6 7 8 9 10 10 10 12 13 14 14 15 15 16 17 16 16 17 16 15 15 15 14 14 14
23 23 23 23 22 22 21 20 20 19 18 17 16 15 15 15 15 15 15 15 15 16 16 17 17 17 18 19 18 19 20 20 20 21 21 21 20 20 21 21 20 20 20 19 20 21 21 20 18 17 15 14 13 12 12 11 11 10 9 8 8 8 8 7 7 7 8 8 8 9 12 13 15 16 16 16 16 17 17 17 17 16 16 15 15 14 14 14
24 23 23 23 22 21 20 19 19 18 17 15 14 14 14 14 14 14 14 14 14 15 16 17 17 17 17 18 18 19 20 20 20 21 22 22 21 20 21 21 20 20 20 19 19 20 21 20 19 17 15 15 14 13 13 12 11 11 10 9 9 9 9 8 8 7 7 8 8 7 11 13 14 16 16 17 17 17 17 17 17 17 16 15 15 14 14 13
24 24 23 22 21 20 19 18 17 16 15 14 13 12 12 12 12 13 13 13 14 15 16 16 16 17 17 17 19 19 19 20 20 21 22 22 21 21 21 22 21 21 20 20 19 19 20 20 19 17 16 15 14 14 14 13 13 13 11 10 10 10 10 9 9 8 7 9 9 8 9 11 13 16 17 17 18 17 17 17 17 17 16 15 15 14 14 13
24 23 22 21 20 18 17 16 15 14 13 12 11 10 10 10 10 11 12 12 13 14 15 16 16 17 17 17 18 19 19 19 20 21 21 21 21 21 21 21 22 22 20 20 20 19 20 20 18 18 17 16 15 15 14 13 13 15 13 11 10 11 11 10 9 9 10 10 10 10 9 9 12 16 17 17 18 18 17 17 17 17 16 16 15 14 14 13
25 23 21 19 18 16 15 14 13 12 11 10 8 7 7 8 8 9 10 11 13 14 14 15 16 16 16 17 18 18 19 19 20 20 21 22 21 21 20 21 22 22 21 21 21 20 20 20 19 19 18 16 15 15 14 13 14 15 15 13 11 11 11 11 10 10 11 10 10 11 9 8 11 15 18 17 17 18 17 17 17 17 17 16 15 14 14 13
24 21 19 17 16 15 13 13 11 10 9 7 6 6 7 7 8 8 9 11 12 13 13 14 16 16 16 16 17 18 18 19 19 20 21 22 22 21 20 21 22 22 21 21 21 21 21 21 21 20 18 16 15 15 14 13 13 13 14 14 12 11 10 10 10 11 12 10 9 10 9 8 10 14 18 17 16 18 18 18 18 17 17 16 15 15 14 13
22 19 17 15 14 13 12 11 10 8 7 6 5 6 6 6 7 7 8 10 11 12 13 14 15 16 16 16 16 17 18 18 18 19 21 22 22 21 21 21 22 22 21 20 21 21 22 22 22 20 19 17 16 15 14 13 13 13 14 13 11 11 11 10 11 12 13 11 9 10 9 9 10 13 17 17 17 18 19 19 18 18 18 17 16 15 14 14
21 18 15 14 13 12 11 10 8 7 6 5 5 5 5 5 6 6 7 8 9 10 12 13 14 15 15 15 17 17 18 18 18 19 21 22 22 21 21 22 22 22 21 21 21 21 22 23 22 20 19 19 16 16 15 13 14 13 12 12 11 11 11 10 11 12 13 11 10 10 10 9 10 12 16 18 17 17 18 19 19 19 18 17 17 16 15 14
19 16 14 13 12 11 10 8 7 6 6 5 5 5 5 5 5 6 6 7 8 8 10 12 13 13 13 14 16 18 18 18 18 19 21 22 21 21 22 22 21 22 22 23 23 22 21 21 21 21 21 20 18 17 16 14 14 13 12 13 12 11 11 10 11 13 12 10 10 11 10 8 10 12 14 17 17 16 16 17 17 18 18 18 17 16 16 16
17 14 13 12 11 10 10 8 6 6 6 5 5 4 4 4 4 5 5 5 7 8 9 11 12 12 12 12 14 18 18 17 18 19 21 22 21 21 21 21 21 22 21 22 23 23 21 19 20 21 21 21 19 18 18 16 15 14 14 15 13 12 11 9 11 13 12 10 10 11 9 9 11 12 14 15 16 16 17 17 16 17 18 18 17 17 17 17
15 13 12 11 10 10 9 7 6 6 6 5 4 4 4 4 3 3 4 4 6 7 8 10 10 11 11 12 13 16 16 16 17 19 20 21 21 20 20 21 21 21 21 21 22 23 22 20 21 22 21 21 20 19 19 18 16 15 16 17 15 13 11 10 12 13 11 11 12 12 10 9 11 13 14 15 16 17 18 19 18 17 17 18 18 18 18 17
14 12 11 10 9 9 8 7 6 6 5 4 4 5 4 3 2 2 3 4 6 6 7 8 9 10 10 11 13 14 15 16 16 18 20 20 20 19 20 20 20 21 21 21 21 21 21 21 20 21 22 22 21 20 19 18 17 16 15 17 17 15 13 12 13 13 12 11 13 14 11 9 11 13 14 14 16 18 18 19 21 19 18 18 18 18 18 18
13 11 10 10 9 8 8 7 7 6 5 4 4 4 4 3 0 3 3 5 6 5 7 7 8 9 10 11 12 13 15 16 16 17 19 20 19 19 20 20 20 21 21 21 21 21 21 22 20 20 21 22 23 22 20 20 18 16 15 16 16 16 15 14 14 13 12 11 13 15 12 9 10 12 14 15 16 17 18 19 21 21 20 19 18 19 19 19
12 10 10 10 9 8 7 6 6 5 4 4 4 4 4 2 1 3 3 4 4 4 6 7 8 9 10 11 11 11 13 15 16 16 18 19 18 17 19 21 21 21 20 22 22 20 21 22 22 21 21 22 23 22 21 21 19 16 15 15 16 15 15 14 14 12 12 12 13 14 13 11 10 10 13 15 16 18 19 20 21 22 22 20 19 19 19 20
11 10 9 9 8 7 7 6 6 5 5 5 5 4 3 2 2 3 3 3 3 4 6 6 7 9 9 11 10 10 12 13 14 15 17 18 17 16 18 20 20 20 19 21 21 20 19 21 22 22 21 21 22 22 23 23 20 17 16 15 15 15 13 13 13 12 12 13 13 15 16 12 10 10 13 14 15 17 18 19 21 22 22 21 21 20 20 20
11 9 9 8 7 7 6 6 6 5 6 6 6 5 4 3 3 3 3 3 2 4 5 5 7 8 10 11 9 9 11 12 12 14 16 17 16 15 16 18 19 19 19 19 21 20 19 19 20 22 22 21 21 22 23 23 21 18 17 16 15 14 14 13 13 12 12 13 12 15 17 14 11 11 13 14 12 12 15 17 20 23 22 22 22 21 20 20
10 9 8 7 7 7 6 6 6 6 6 5 5 5 5 4 4 3 3 2 2 3 4 6 6 7 9 10 10 10 11 11 11 14 15 16 16 16 16 17 18 18 19 19 20 20 20 21 21 21 22 21 20 20 21 21 21 20 19 18 16 15 15 14 13 13 13 12 10 12 16 15 13 12 12 14 11 10 12 15 18 22 23 23 22 22 21 20
10 8 7 6 6 6 6 6 6 6 6 5 5 5 4 5 5 4 3 1 1 2 4 6 6 7 7 9 10 10 11 11 11 13 14 15 16 16 16 16 17 18 18 19 19 19 21 22 21 20 21 22 21 20 21 21 22 22 21 21 19 16 16 15 14 14 14 13 10 11 14 15 15 13 12 14 14 12 12 14 16 20 23 24 23 23 22 21
9 8 7 6 6 6 6 6 6 6 6 5 5 5 4 5 5 4 3 1 1 1 3 5 6 6 7 9 9 10 11 11 11 12 13 14 15 16 15 15 16 17 16 18 19 18 19 20 20 21 21 23 23 22 21 22 23 25 24 22 21 18 17 16 15 14 14 14 12 12 13 13 14 13 12 13 14 14 14 15 16 18 22 24 24 24 23 21
9 7 6 6 6 5 5 5 6 6 6 5 4 4 5 5 4 3 3 2 1 1 2 4 5 6 6 8 9 9 10 10 10 12 13 14 15 15 15 15 16 16 16 17 18 18 18 19 20 21 21 22 24 23 21 21 22 24 24 23 22 20 18 16 16 15 13 13 13 13 13 12 12 11 11 11 12 13 14 15 16 17 20 22 23 24 24 22
7 6 6 6 6 5 5 5 6 6 6 5 4 4 6 5 3 3 4 3 1 1 1 3 4 5 6 7 8 9 9 9 10 11 12 13 14 14 15 14 15 16 17 17 16 17 17 17 18 19 19 21 23 23 21 20 21 22 23 24 22 21 19 16 16 15 13 12 13 15 14 12 12 11 10 10 10 11 12 15 16 17 18 20 21 23 24 23
6 5 6 6 6 6 5 5 6 6 5 4 5 6 6 4 3 3 3 3 2 1 1 2 3 5 6 7 7 8 8 9 10 11 11 12 13 12 13 14 14 15 17 17 16 16 16 17 17 18 20 22 21 22 22 22 20 21 24 25 22 20 19 17 15 14 14 14 14 15 15 14 13 13 11 10 9 9 10 13 16 17 18 19 20 22 23 23
5 5 5 6 7 6 5 6 6 6 5 5 5 6 5 4 3 2 2 3 2 1 1 2 3 4 6 7 7 7 8 10 11 11 11 11 11 11 12 13 13 14 16 17 16 15 16 17 17 17 20 21 20 20 22 22 21 20 23 24 21 19 19 18 16 15 15 16 14 15 16 15 14 14 11 9 9 8 10 12 15 16 17 19 20 21 23 23
5 4 5 6 7 6 5 6 6 6 5 5 6 5 4 4 3 2 3 3 2 1 0 2 2 4 7 8 7 7 8 10 11 11 11 10 10 10 11 11 12 13 14 16 16 15 15 16 16 17 18 19 20 21 21 22 22 20 21 23 22 21 21 20 18 16 17 16 15 15 16 16 16 15 12 10 9 9 10 11 13 15 16 17 19 20 21 23
4 4 4 6 6 5 5 5 6 6 5 5 6 5 4 4 4 4 4 3 2 1 1 1 2 4 6 8 8 7 8 9 10 10 10 10 10 10 10 10 11 12 12 15 15 14 14 14 15 16 17 17 20 23 23 22 22 21 20 22 23 22 21 21 19 17 16 16 15 15 14 15 17 16 13 12 10 10 11 12 12 14 15 16 17 18 19 20
4 4 4 5 5 4 4 5 5 5 5 5 5 5 4 4 5 5 5 4 3 2 1 0 2 3 6 8 8 7 7 8 9 10 10 10 10 10 10 9 10 10 12 14 14 14 14 14 15 15 16 18 20 22 23 22 22 23 22 22 23 22 21 20 20 19 17 16 16 16 15 15 15 16 15 14 12 11 11 12 13 13 13 14 15 16 17 18
4 4 3 5 5 4 4 4 4 4 4 5 5 4 5 6 6 6 6 5 4 2 1 1 2 3 6 7 7 7 7 8 9 9 9 10 10 9 9 9 10 10 12 13 13 13 14 14 15 15 16 18 19 19 21 22 21 22 23 23 23 23 22 21 20 20 19 17 16 16 16 14 14 16 16 15 14 13 12 13 13 13 13 13 13 14 16 17
4 3 3 5 5 3 3 3 3 3 4 4 5 5 6 6 6 6 7 6 4 2 1 1 2 2 4 6 7 7 7 7 8 9 9 9 9 9 8 8 10 11 11 12 13 13 14 14 14 15 15 18 18 17 19 21 20 20 21 22 22 23 24 24 22 20 20 18 16 16 16 15 15 16 16 16 15 14 13 14 14 13 13 13 13 14 15 16
3 3 3 5 4 3 2 2 2 3 4 4 5 5 6 6 6 6 7 7 5 2 1 1 2 2 3 5 6 7 6 7 7 7 9 9 9 9 9 8 9 11 11 12 12 13 14 13 13 14 15 16 17 18 18 20 20 19 19 20 21 22 23 23 21 20 20 20 18 17 16 15 16 17 16 16 15 14 14 15 15 14 13 13 13 14 15 16
3 3 3 4 4 2 1 1 2 3 3 4 5 6 6 6 7 7 7 7 6 3 1 1 2 2 3 4 5 6 6 6 7 6 7 8 8 8 8 7 8 10 10 11 12 13 13 13 13 14 15 15 17 18 18 19 19 19 19 20 20 21 21 22 21 20 21 20 19 19 18 16 16 17 18 17 16 15 15 16 16 15 14 14 14 14 15 15
3 2 3 4 4 3 1 0 1 2 3 3 4 6 6 6 7 7 6 6 6 3 1 1 2 2 3 4 4 5 5 6 7 7 7 7 7 8 8 7 7 9 9 10 12 13 12 12 13 15 15 15 16 16 16 17 18 18 19 19 19 20 21 21 21 21 22 20 19 20 18 17 18 19 19 18 17 17 16 16 16 15 14 14 14 14 15 15
3 3 3 3 3 3 1 1 1 1 2 3 3 5 6 5 6 6 5 5 6 5 2 1 1 2 2 3 4 4 4 5 6 7 7 7 7 7 7 7 7 8 9 10 11 13 13 12 13 13 13 14 14 15 16 16 17 17 17 17 18 20 20 20 21 22 22 21 20 20 18 18 20 20 19 19 18 18 17 16 16 16 15 15 14 14 14 15
3 3 3 3 2 2 1 1 2 2 1 2 3 4 5 6 6 6 5 5 5 5 3 2 1 1 2 2 3 3 3 4 5 6 7 7 7 7 7 7 7 7 8 9 10 12 13 12 12 12 13 14 14 14 15 15 15 15 15 16 17 18 19 21 22 21 21 21 21 20 20 19 20 21 20 19 19 18 17 17 17 17 16 15 15 15 15 15
3 3 3 3 2 2 2 2 3 2 2 2 2 3 4 5 5 5 5 4 4 5 2 1 2 1 1 2 2 2 3 4 5 6 7 6 7 7 7 7 7 6 8 9 9 11 13 12 12 13 14 14 13 13 13 14 15 15 13 13 15 16 18 20 20 19 20 21 21 21 22 21 20 20 20 19 20 19 18 18 17 17 16 15 15 15 15 15
3 3 3 3 3 2 2 3 3 2 2 3 2 3 3 4 4 4 5 4 4 4 3 1 1 1 1 2 3 2 3 4 4 5 6 6 6 7 7 7 7 6 7 9 10 11 13 13 13 14 15 14 13 12 12 13 15 14 12 12 13 15 16 17 18 18 19 20 20 20 21 20 19 20 19 18 19 19 18 18 17 17 17 16 16 16 15 16
4 4 4 3 3 3 3 3 3 2 2 3 2 2 3 3 4 4 4 5 4 3 3 1 0 1 1 1 2 3 3 4 5 5 5 6 6 6 6 7 7 6 6 8 10 12 13 13 14 15 16 15 13 12 11 12 15 13 10 10 11 13 15 16 17 18 18 19 19 20 20 19 19 19 18 18 19 18 18 18 18 18 18 17 16 16 15 15
4 4 4 4 4 4 3 3 3 3 3 3 3 2 3 3 3 3 4 4 3 2 2 1 1 1 2 1 0 1 3 5 5 5 6 6 5 5 5 6 7 7 6 7 9 11 12 14 15 15 16 16 15 13 11 13 15 14 10 9 11 12 14 15 16 17 18 19 20 20 21 20 20 19 18 19 19 19 19 19 19 19 19 18 17 16 16 15
5 4 4 4 4 4 3 3 3 3 3 3 3 3 3 3 3 3 2 3 3 3 2 1 0 1 1 1 1 2 3 4 4 4 5 6 5 4 4 4 5 6 6 7 8 9 11 13 14 16 17 16 15 15 14 13 15 15 13 12 12 12 14 16 16 16 17 19 19 20 20 20 20 20 20 20 20 20 19 19 19 19 19 19 18 17 16 15
Wind_Direction
330 327 323 319 316 313 310 306 302 298 294 289 284 279 274 269 267 264 260 257 254 251 250 249 248 248 245 242 238 236 235 232 229 224 220 220 217 212 207 204 202 198 194 191 190 191 192 190 187 188 186 186 195 192 193 215 326 348 351 350 6 5 190 174 168 164 160 158 154 151 147 142 142 138 135 134 128 128 132 131 131 129 130 136 139 140 139 139
328 326 322 318 315 311 308 305 301 297 293 289 284 280 275 270 266 263 260 257 254 251 249 248 247 247 246 244 240 237 235 232 229 226 224 221 216 211 208 206 201 197 195 193 193 192 192 191 188 188 185 187 196 190 186 189 33 350 360 11 12 357 180 168 166 166 161 159 154 150 148 144 143 141 141 140 133 131 133 133 132 130 132 137 140 141 140 141
326 323 320 317 314 310 307 303 300 297 293 289 284 279 275 271 267 262 259 257 254 252 249 248 246 246 245 243 241 238 235 232 228 225 224 219 213 209 206 205 201 197 197 196 196 195 194 190 188 187 185 189 194 188 186 182 114 23 21 26 24 51 160 160 167 165 159 157 152 149 147 142 142 144 144 141 136 137 140 140 138 137 140 141 143 144 143 143
323 320 317 315 312 309 306 303 299 296 293 289 284 279 275 271 267 263 260 256 253 252 250 248 246 244 243 242 239 237 234 230 225 222 221 215 210 207 204 204 201 198 199 198 197 197 194 190 189 189 188 189 191 190 193 191 162 86 61 41 52 101 142 154 162 157 153 155 150 147 146 142 143 145 144 141 138 141 145 145 143 143 144 144 146 147 145 144
321 318 315 313 311 309 306 302 299 295 292 288 284 280 275 271 267 264 260 256 253 251 249 248 245 243 241 239 237 235 230 225 221 220 220 217 211 206 203 203 201 200 200 198 198 197 194 190 190 191 193 190 188 193 198 196 187 141 83 55 75 114 122 140 153 151 150 152 148 148 148 146 145 143 145 145 141 143 147 148 145 144 146 147 148 148 146 145
320 317 314 312 310 308 305 302 298 295 291 287 284 280 275 271 267 264 261 257 253 250 248 247 245 242 239 236 235 231 226 223 223 223 223 219 211 205 203 202 201 201 200 198 199 198 195 193 192 192 193 192 192 197 196 191 192 176 106 76 87 119 126 136 148 148 149 150 150 151 149 147 144 140 143 141 135 140 145 147 145 144 147 148 148 148 147 146
320 317 314 312 309 307 304 301 298 294 290 287 283 280 276 271 267 264 261 257 253 250 248 245 244 241 237 234 231 228 226 226 227 225 223 217 209 205 204 202 202 202 200 199 200 199 196 195 195 192 191 192 194 199 198 188 192 195 140 103 111 126 136 142 149 151 151 151 153 152 148 148 146 144 144 136 135 141 145 147 145 144 147 149 149 149 148 147
319 316 314 311 308 306 303 301 298 294 291 287 283 279 276 272 267 263 260 256 253 250 247 244 242 238 235 232 230 228 226 226 227 225 219 211 205 203 203 203 204 203 202 202 201 200 198 196 196 193 195 196 193 197 197 189 190 193 173 135 134 134 145 152 154 157 153 151 155 152 148 148 147 148 145 139 141 144 145 148 147 146 148 151 151 150 149 149
319 316 313 311 308 305 302 300 297 294 291 287 283 279 275 272 268 264 259 256 252 250 247 243 238 234 232 231 229 227 224 224 225 221 214 208 203 201 202 203 204 204 203 204 203 201 200 199 197 197 201 200 195 199 198 195 189 185 174 156 151 145 153 159 159 162 158 157 160 154 150 148 150 151 146 144 146 146 147 149 149 149 151 153 153 153 152 153
318 315 312 310 308 305 302 299 297 294 292 288 284 280 276 271 267 264 260 255 251 248 245 240 235 232 231 230 227 224 222 222 222 216 210 207 202 201 202 202 203 203 203 203 203 203 204 202 199 200 204 200 200 205 203 199 185 178 170 153 150 148 154 164 163 166 165 167 167 160 157 156 158 161 154 150 150 149 149 150 150 151 153 155 156 156 156 156
317 315 313 311 308 306 303 300 298 296 293 290 285 281 277 272 266 263 260 255 250 245 242 238 234 230 230 228 225 223 220 220 219 212 208 206 203 201 202 202 202 202 201 202 203 205 205 203 201 204 206 206 209 206 202 195 179 174 166 146 145 147 151 166 167 170 172 176 175 164 160 163 168 169 158 153 154 153 151 152 153 153 155 157 158 159 159 158
317 315 313 311 309 306 303 301 299 297 295 291 286 281 277 272 266 261 258 254 248 242 239 237 232 229 229 228 225 222 219 219 217 209 205 205 204 203 203 203 203 203 201 201 203 205 205 203 203 205 206 209 211 207 205 198 183 179 174 162 164 159 157 170 171 177 183 183 179 170 169 176 177 171 160 157 157 156 154 155 156 155 156 158 159 160 161 160
318 315 313 311 309 307 304 302 300 298 296 292 287 282 276 271 265 259 255 251 246 240 237 235 231 229 229 227 224 221 218 217 214 208 205 205 204 205 205 204 204 204 203 202 203 204 204 203 204 205 206 210 211 211 211 203 192 187 185 180 176 170 167 171 171 178 186 185 184 184 186 185 181 173 165 162 160 159 158 158 159 158 158 160 161 162 164 164
318 316 314 312 310 307 305 303 302 300 297 292 286 281 275 268 261 256 251 248 244 239 235 232 230 229 227 225 222 219 216 213 211 207 206 205 204 204 206 205 204 204 204 203 203 204 203 203 205 206 208 211 213 214 206 198 197 192 189 189 187 183 174 170 170 174 184 187 189 196 196 188 183 178 171 167 165 162 162 162 162 161 160 162 163 164 165 168
319 317 315 313 311 308 306 304 303 301 298 292 285 279 273 265 257 252 247 244 240 236 231 229 230 229 228 225 220 215 212 211 211 209 208 207 205 204 205 204 205 204 203 202 202 203 203 203 205 206 208 209 213 211 200 198 202 198 196 195 194 191 182 180 181 179 185 187 189 201 200 191 185 181 176 172 170 167 165 165 165 164 163 164 166 166 166 170
320 318 316 314 312 309 307 305 303 302 298 291 284 278 270 262 255 247 243 240 236 231 228 230 230 228 226 221 215 211 210 211 211 210 209 208 207 206 203 202 203 204 204 202 201 200 200 201 203 205 207 208 209 206 200 202 204 204 207 201 194 192 189 190 193 191 186 180 185 197 193 187 185 182 179 176 175 172 169 168 168 167 166 166 167 168 169 171
322 320 318 316 313 310 308 306 304 302 299 292 285 278 271 262 253 245 240 237 233 230 231 232 229 226 223 218 213 210 210 211 211 209 208 209 208 205 202 202 202 202 203 202 200 198 197 200 203 204 205 206 207 206 203 205 206 206 209 204 195 192 190 189 193 195 187 178 183 185 180 183 185 183 181 180 179 177 174 172 171 171 170 169 169 170 172 173
325 322 320 318 315 312 310 308 306 304 302 296 288 282 275 266 255 248 242 236 233 232 232 230 225 222 219 216 213 211 212 211 208 207 207 207 206 204 203 202 200 199 200 201 201 199 199 202 204 204 205 204 205 206 205 208 208 205 205 203 195 192 194 193 191 191 187 183 183 184 183 183 184 183 184 183 182 182 180 176 174 174 174 173 173 175 175 176
328 325 323 320 317 314 313 312 311 309 307 301 294 289 282 274 262 252 247 241 236 233 231 225 221 220 218 216 215 214 213 209 207 207 205 205 203 202 202 200 198 198 200 202 203 202 202 203 205 205 205 203 203 207 209 211 209 204 202 202 197 195 199 198 196 191 189 190 189 190 192 187 184 185 185 184 185 186 184 180 178 177 178 177 178 178 178 179
330 327 325 323 319 318 318 317 317 316 314 306 298 292 286 279 265 254 252 247 238 232 231 225 221 222 221 216 214 214 209 206 207 206 203 203 201 198 199 199 198 199 203 203 202 204 204 205 207 206 203 201 202 205 207 207 205 202 200 200 202 203 200 199 199 195 194 197 196 194 194 192 190 189 188 186 186 188 188 185 182 181 181 181 181 182 180 182
333 330 328 325 323 322 322 322 322 321 320 311 302 296 286 277 265 258 254 245 236 230 229 224 219 221 220 215 214 210 205 204 205 204 202 201 200 199 202 202 200 201 204 202 199 203 206 207 207 205 204 203 203 203 204 205 200 199 202 202 210 212 203 201 201 196 198 202 200 196 196 195 194 191 190 188 187 189 191 189 187 186 185 183 184 185 183 184
336 333 330 330 329 326 325 326 326 327 327 318 310 303 289 278 266 259 249 241 238 228 221 218 216 219 218 215 213 207 203 203 202 202 202 201 202 204 204 205 203 202 203 201 199 202 205 208 206 204 205 204 203 202 202 203 199 200 201 198 209 214 199 198 201 196 199 206 204 200 201 199 195 192 191 191 192 192 194 194 192 190 188 187 187 186 186 187
337 335 334 335 334 333 331 330 331 332 329 319 312 303 295 292 273 256 242 236 236 222 210 208 209 212 212 211 208 203 202 204 202 202 202 200 203 204 203 204 203 200 202 201 200 202 204 208 205 202 205 203 202 202 199 200 200 202 198 191 199 206 200 200 200 196 199 208 207 202 206 205 198 196 194 195 196 196 197 198 195 193 192 191 190 189 190 191
339 337 337 338 338 340 340 337 333 331 328 316 306 305 304 307 287 255 235 224 222 212 201 200 203 206 207 207 202 200 201 202 202 201 200 200 200 202 202 202 200 200 203 202 200 202 204 206 203 201 205 205 204 203 201 204 204 204 202 197 196 200 205 204 195 193 198 207 206 199 205 212 205 201 199 197 198 199 201 201 198 195 194 193 192 193 194 194
341 340 342 343 344 345 348 346 336 331 330 315 309 323 321 314 293 247 228 209 197 196 193 194 200 202 203 203 200 201 200 199 200 199 199 199 198 200 202 202 202 203 204 202 200 204 206 205 202 202 205 206 206 206 205 207 208 208 206 203 203 201 199 194 189 192 200 209 208 202 207 212 206 206 204 200 201 203 203 205 203 198 195 194 195 196 197 197
344 344 348 350 349 349 352 353 346 338 332 322 326 338 338 326 286 210 202 184 174 185 193 192 197 198 199 199 197 199 197 196 199 198 198 198 199 201 201 203 205 204 204 203 203 207 207 205 204 205 206 206 208 209 207 207 210 212 209 205 208 207 198 193 195 199 206 210 207 207 213 213 206 209 206 201 204 206 205 207 206 201 196 196 197 198 199 198
348 350 354 356 356 355 355 356 353 345 340 343 345 346 350 348 208 175 176 166 164 185 197 196 197 194 194 193 193 197 196 194 195 196 198 199 200 203 202 203 204 203 204 204 206 209 206 205 206 206 206 208 211 211 207 207 211 213 209 205 207 207 203 201 204 209 214 209 202 206 213 215 213 211 205 201 205 208 208 207 206 204 201 198 198 199 200 200
352 354 357 359 1 3 4 5 2 359 3 8 1 359 4 16 130 167 175 163 167 188 190 192 193 189 191 190 190 195 195 193 194 197 199 198 200 204 204 204 204 202 204 206 206 209 208 208 208 206 208 211 213 212 207 207 212 213 210 207 207 207 206 205 209 214 214 208 204 206 209 213 215 209 203 203 207 211 211 207 205 205 205 201 199 199 200 201
356 358 359 0 4 10 14 14 14 19 23 19 14 14 17 52 116 148 159 152 170 185 182 187 189 189 191 189 189 193 191 194 198 198 198 198 201 204 203 204 203 201 206 210 209 209 210 210 209 208 211 213 212 211 207 207 211 211 206 205 206 206 204 203 210 213 211 213 211 205 206 213 214 206 202 203 209 214 212 208 206 207 207 204 201 198 198 200
359 359 359 2 9 17 20 19 20 24 23 22 25 31 45 79 106 121 124 129 170 185 187 194 193 192 191 188 192 194 191 193 196 194 195 199 201 201 201 202 203 203 207 212 212 212 211 210 210 210 212 213 212 210 208 207 209 207 203 202 201 202 203 204 210 212 212 215 213 206 207 215 218 209 205 205 208 212 210 208 208 207 207 206 202 199 199 200
359 359 359 6 15 21 23 24 25 25 23 26 33 45 65 78 82 88 94 112 169 186 189 190 190 190 190 192 194 193 192 194 196 195 196 200 199 199 202 202 203 205 207 210 212 214 214 212 211 212 212 210 210 210 207 207 209 209 207 205 201 202 204 207 210 212 214 212 209 210 209 213 219 215 209 210 211 210 209 209 208 207 207 206 204 202 201 201
359 358 1 11 20 20 22 24 26 28 28 29 40 60 80 75 64 68 77 99 157 175 183 185 192 196 194 196 196 196 196 196 199 198 198 201 201 200 204 206 204 206 209 211 212 214 216 215 214 214 212 209 209 209 206 206 209 210 210 208 206 206 208 211 213 214 217 214 213 214 209 212 222 221 215 217 220 220 216 212 209 208 206 205 204 203 202 203
359 1 8 18 23 21 21 24 26 28 25 29 49 69 79 71 61 55 51 64 105 154 181 186 196 202 197 194 196 199 199 199 204 202 200 203 202 201 204 206 206 207 208 210 212 214 216 216 214 213 213 210 209 210 207 207 209 210 209 209 209 210 210 212 214 217 220 218 215 212 210 217 223 221 220 225 230 231 227 220 214 209 207 205 204 204 204 205
1 8 17 24 26 22 22 24 25 25 24 33 52 61 61 65 61 49 48 61 96 138 168 183 194 195 189 190 195 199 199 200 204 202 199 201 201 202 203 205 208 209 209 210 211 213 214 215 213 211 212 209 209 212 210 207 209 211 210 211 213 213 213 214 216 219 219 214 212 210 213 220 218 215 221 228 234 234 230 222 215 210 208 205 204 204 204 205
6 18 23 27 28 24 22 23 25 25 27 37 47 49 56 62 58 52 50 49 63 101 143 170 184 182 178 184 192 197 199 199 201 199 196 197 200 203 205 208 211 210 209 211 211 212 216 217 214 212 213 209 208 211 208 206 210 212 210 212 215 214 214 216 218 219 217 214 214 216 220 222 218 217 220 226 230 227 224 218 210 208 206 203 203 203 203 204
15 25 25 25 27 26 25 25 23 18 19 34 48 51 55 55 52 56 47 35 38 26 175 169 175 177 179 185 189 194 199 196 195 194 192 196 201 202 206 211 211 211 211 212 211 211 215 215 211 211 213 211 210 209 207 210 212 210 211 213 214 215 214 216 218 217 218 220 218 218 223 222 220 221 220 222 225 219 216 211 205 205 204 201 202 203 203 204
21 26 26 23 19 20 27 30 21 16 21 38 52 54 51 47 49 49 23 13 13 355 202 186 190 187 187 191 192 197 197 192 194 193 191 197 202 202 209 211 209 212 215 214 214 214 218 218 212 211 212 212 212 210 209 213 212 210 213 211 210 215 218 218 218 216 218 222 219 218 224 222 218 219 218 218 221 216 211 206 202 203 203 201 201 202 202 204
23 28 29 20 14 16 28 27 21 24 34 42 50 52 45 39 39 24 7 4 358 4 102 189 206 199 194 192 191 197 198 193 195 194 191 197 201 202 210 211 208 212 214 213 213 213 217 219 214 211 212 211 210 209 210 213 214 216 215 210 209 215 216 215 218 217 217 221 220 219 224 224 219 218 217 218 219 214 210 206 202 202 203 202 201 200 200 201
23 26 24 15 13 20 25 22 25 35 41 41 45 46 36 25 20 13 8 6 359 5 39 180 209 200 195 194 190 192 195 193 194 196 196 199 200 202 208 210 211 214 212 210 211 211 214 216 212 208 212 213 210 211 212 211 212 215 215 212 214 218 215 214 218 220 219 221 222 220 221 222 220 219 219 221 221 215 210 206 204 203 203 203 201 200 199 199
14 13 15 10 9 13 14 21 34 35 36 40 40 37 30 17 9 11 12 10 3 3 19 221 217 197 193 197 195 192 192 191 193 196 200 201 201 204 209 211 214 216 214 211 211 213 213 214 214 211 211 212 210 212 214 213 211 212 213 213 214 216 216 215 218 221 221 221 221 221 221 220 219 219 219 220 220 217 211 207 206 205 204 203 201 200 198 198
6 4 5 2 360 2 13 28 34 26 29 39 34 26 26 19 10 8 10 13 12 6 7 193 199 194 194 197 197 196 194 192 195 198 199 202 205 208 209 212 216 217 215 213 212 214 214 213 217 218 214 212 212 212 215 217 216 214 214 215 215 215 214 214 217 219 221 223 222 223 224 218 216 218 219 218 217 215 212 209 206 205 203 202 201 199 198 199
4 0 356 357 357 2 23 34 27 21 28 31 23 17 16 16 12 6 6 10 10 4 12 167 182 190 194 195 197 197 192 191 199 202 201 203 207 211 217 223 221 217 217 215 215 217 215 214 217 219 216 216 216 213 212 215 217 215 215 217 217 216 215 217 219 217 218 222 223 225 226 220 217 218 218 218 217 215 214 210 205 204 203 202 200 199 199 200
357 351 346 355 359 2 26 35 17 18 21 15 15 15 13 15 14 7 5 8 8 4 21 172 192 186 186 197 199 196 194 193 197 200 201 204 208 215 226 233 222 216 217 217 216 216 215 215 218 217 215 213 212 210 208 210 211 212 214 216 218 219 218 220 222 220 218 221 221 223 225 222 219 220 220 218 214 213 216 212 206 206 205 203 201 200 201 202
349 345 346 354 356 353 16 33 14 14 13 9 15 15 11 14 16 12 9 11 14 14 32 162 191 190 192 203 201 200 206 203 197 201 204 204 209 216 226 231 222 218 219 219 219 218 216 216 217 214 210 205 203 204 205 207 210 212 214 217 220 220 218 218 221 222 221 222 222 224 226 222 219 221 222 218 213 213 215 213 210 209 207 205 204 203 203 205
330 334 345 352 357 359 2 359 5 16 13 10 14 9 5 9 14 14 14 15 20 24 41 168 209 213 206 207 202 205 219 212 203 208 210 209 213 218 226 231 225 222 224 223 222 219 215 215 216 213 209 205 203 205 208 211 215 215 215 218 220 219 219 219 219 222 224 223 223 226 227 222 219 222 221 218 216 216 215 214 213 212 209 208 208 206 206 207
318 322 327 336 355 7 360 333 354 13 2 356 2 2 3 6 6 8 15 21 24 29 42 61 235 223 210 213 208 207 224 220 208 208 212 218 221 224 234 234 229 229 227 224 222 217 212 210 211 207 200 199 203 207 213 215 215 216 218 220 220 220 222 222 221 223 224 222 224 227 225 220 220 222 220 216 217 217 217 216 215 213 212 211 211 210 209 210
312 312 315 318 332 347 352 356 358 352 323 332 343 348 356 1 359 4 15 20 21 23 36 55 43 188 193 207 201 201 222 223 215 213 216 225 229 233 241 238 237 242 232 223 222 215 207 204 205 199 189 190 197 203 209 211 211 215 219 220 221 221 222 222 223 224 222 222 226 226 222 220 221 222 219 215 216 216 216 217 216 216 216 215 215 215 213 214
305 300 306 310 304 294 293 319 333 337 328 322 327 335 349 1 4 6 7 8 13 14 15 45 31 33 196 202 189 198 225 220 217 223 224 227 232 236 244 242 245 250 233 221 218 213 204 200 203 201 192 190 196 200 204 205 207 213 217 219 221 221 220 222 226 228 226 227 229 222 219 222 222 220 219 218 217 215 214 216 217 218 219 218 217 218 218 219
301 294 296 302 298 282 280 287 291 307 326 320 318 328 340 357 4 359 352 353 4 8 11 54 342 327 238 216 204 206 227 218 213 223 225 228 231 233 238 241 247 255 238 222 216 213 209 204 205 207 202 199 202 206 206 204 206 211 216 220 222 220 219 221 224 227 228 230 228 220 218 223 222 219 219 219 217 216 215 217 218 218 219 219 218 219 220 222
296 289 284 286 293 292 288 283 271 278 307 306 302 316 325 342 354 351 349 355 1 2 17 81 198 271 260 238 213 210 227 223 215 218 221 224 227 229 232 234 240 251 245 227 219 218 215 211 210 212 210 209 213 216 218 213 208 210 218 226 227 224 222 222 224 227 228 227 224 219 218 222 222 219 218 218 218 217 217 218 220 220 220 220 220 221 222 223
295 288 281 276 283 292 287 280 276 275 286 288 283 293 304 320 335 343 358 7 12 8 13 66 135 242 254 287 263 229 232 225 223 227 226 224 226 230 234 234 236 243 245 233 227 224 221 217 215 214 214 214 218 222 226 223 217 218 225 233 234 229 225 225 226 228 229 224 220 220 223 225 222 217 216 217 218 217 217 218 220 221 222 222 223 224 225 226
294 284 280 275 279 288 278 265 273 274 273 277 276 285 300 307 310 319 350 10 15 17 1 320 353 315 281 294 287 266 246 225 220 221 215 214 216 222 231 234 237 242 241 235 229 226 226 224 221 219 217 217 221 224 227 229 226 225 228 232 232 230 229 229 228 230 230 224 222 226 228 225 220 217 217 217 217 216 216 219 221 223 223 223 224 225 225 225